Regional Weather Roundup
Issued by NWS Charleston, WV

Home | Current Version | Previous Version | Text Only | Print | Product List | Glossary On
Versions: 1 2 3 4 5 6 7 8 9 10 11 12 13 14 15 16 17 18 19 20 21 22 23 24 25 26 27 28 29 30 31 32 33 34 35 36 37 38 39 40 41 42 43 44 45 46 47 48 49 50
191
ASUS41 KRLX 120510
RWRRLX
West Virginia Regional Weather Roundup
National Weather Service Charleston WV
1200 AM EST FRI FEB 12 2016

Note: "fair" indicates few or no clouds below 12,000 feet with no
significant weather and/or obstructions to visibility.

WVZ003-120600-
Northern Panhandle of West Virginia

CITY           SKY/WX    TMP DP  RH WIND       PRES   REMARKS
WHEELING         N/A     11   3  70 SW6       30.24F WCI   1
$$

WVZ009-120600-
Northwest West Virginia

CITY           SKY/WX    TMP DP  RH WIND       PRES   REMARKS
PARKERSBURG      N/A      7   3  84 CALM      30.32S FOG
$$

WVZ006-120600-
Western West Virginia

CITY           SKY/WX    TMP DP  RH WIND       PRES   REMARKS
HUNTINGTON       N/A     20   5  52 E5        30.29F
$$

WVZ015-120600-
West Central West Virginia

CITY           SKY/WX    TMP DP  RH WIND       PRES   REMARKS
CHARLESTON       N/A     15   7  70 CALM      30.28F
$$

WVZ022-031-120600-
North Central West Virginia

CITY           SKY/WX    TMP DP  RH WIND       PRES   REMARKS
CLARKSBURG       N/A      7   3  84 CALM      30.26S
MORGANTOWN       N/A      5  -1  76 S3        30.26S
$$

WVZ025-035-042-045-120600-
Southern West Virginia

CITY           SKY/WX    TMP DP  RH WIND       PRES   REMARKS
BECKLEY          N/A     13   4  67 S3        30.16F
LOGAN            N/A     19   7  58 CALM      30.22F
BLUEFIELD      MOCLDY    14   3  61 W5        30.14F WCI   6
LEWISBURG        N/A     11   4  72 CALM      30.18F
$$

WVZ047-120600-
Northern Mountains of West Virginia

CITY           SKY/WX    TMP DP  RH WIND       PRES   REMARKS
ELKINS           N/A      2  -3  80 CALM      30.21S
$$

WVZ052-120600-
Eastern Panhandle of West Virginia

CITY           SKY/WX    TMP DP  RH WIND       PRES   REMARKS
MARTINSBURG      N/A     18   0  45 W8        30.29S WCI   8
PETERSBURG       N/A     16   4  57 CALM      30.29S
$$




USA.gov is the U.S. government's official web portal to all federal, state and local government web resources and services.